Date String (YYYY-MM-DD hh:mm:ss) UTC,Instrument flags,Ambient pressure (hPa),Sample flow (lpm),Bypass flow (lpm),Sample temperature (°C),Ambient temperature (°C),ASC tube jacket temperature (°C),LED temperature (°C),Box temperature (°C),Sample RH (%),Span deviation,Mass concentration (μg/m³),Mass concentration (μg/m³),Mass concentration (μg/m³)
DateTimeUTC,F1_M11,P_M11,Q1_M11,Q2_M11,T1_M11,T2_M11,T3_M11,T4_M11,T5_M11,U1_M11,ZSPAN_M11,X0_M11,X2_M11,X1_M11
2022-10-28 11:00:00,,0831.5,5.00,0.00,22.0,20.4,00.0,30.9,23.7,12.9,0000.0,0002.35,0001.95,0001.76
2022-10-28 11:01:00,,0831.5,5.00,0.00,22.0,20.4,00.0,30.9,23.7,13.0,0000.0,0002.44,0001.96,0001.75
2022-10-28 11:02:00,,0831.5,5.00,0.00,22.0,20.4,00.0,30.9,23.7,13.0,0000.0,0002.38,0001.93,0001.75
2022-10-28 11:03:00,,0831.5,5.00,0.00,22.0,20.3,00.0,30.9,23.7,13.0,0000.0,0002.37,0001.93,0001.74
2022-10-28 11:04:00,,0831.5,5.00,0.00,22.0,20.3,00.0,30.9,23.7,12.9,0000.0,0002.44,0001.95,0001.74
2022-10-28 11:05:00,,0831.5,5.00,0.00,22.0,20.3,00.0,30.9,23.7,12.9,0000.0,0002.43,0001.95,0001.74
2022-10-28 11:06:00,,0831.5,5.00,0.00,22.0,20.4,00.0,30.9,23.8,12.9,0000.0,0002.43,0001.94,0001.75
2022-10-28 11:07:00,,0831.5,5.01,0.00,22.0,21.1,00.0,30.9,24.0,12.7,0000.0,0002.45,0001.94,0001.74
2022-10-28 11:08:00,,0831.5,4.99,0.00,22.1,21.9,00.0,30.9,24.2,12.7,0000.0,0002.43,0001.93,0001.74
2022-10-28 11:09:00,,0831.5,4.99,0.00,22.2,22.3,00.0,30.9,24.3,12.7,0000.0,0002.35,0001.89,0001.72
2022-10-28 11:10:00,,0831.5,5.02,0.00,22.3,22.0,00.0,31.0,24.3,12.6,0000.0,0002.34,0001.87,0001.70
2022-10-28 11:11:00,,0831.5,4.98,0.00,22.3,21.8,00.0,31.0,24.3,12.5,0000.0,0002.32,0001.85,0001.68
2022-10-28 11:12:00,,0831.5,5.01,0.00,22.3,21.6,00.0,31.0,24.2,12.6,0000.0,0002.24,0001.81,0001.67
2022-10-28 11:13:00,,0831.6,4.99,0.00,22.3,21.4,00.0,31.0,24.1,12.4,0000.0,0002.22,0001.80,0001.66
2022-10-28 11:14:00,,0831.5,5.00,0.00,22.3,21.3,00.0,31.0,24.1,12.4,0000.0,0002.24,0001.80,0001.65
2022-10-28 11:15:00,,0831.5,5.01,0.00,22.3,21.1,00.0,31.1,24.1,12.4,0000.0,0002.27,0001.81,0001.65
2022-10-28 11:16:00,,0831.5,5.01,0.00,22.3,21.0,00.0,31.1,24.0,12.4,0000.0,0002.29,0001.82,0001.64
2022-10-28 11:17:00,,0831.5,5.00,0.00,22.2,20.9,00.0,31.1,23.9,12.4,0000.0,0002.34,0001.83,0001.62
2022-10-28 11:18:00,,0831.5,5.00,0.00,22.2,20.9,00.0,31.1,23.9,12.4,0000.0,0002.37,0001.84,0001.62
2022-10-28 11:19:00,,0831.5,5.00,0.00,22.2,20.8,00.0,31.1,23.9,12.3,0000.0,0002.44,0001.86,0001.61
2022-10-28 11:20:00,,0831.5,5.00,0.00,22.2,20.8,00.0,31.1,23.9,12.2,0000.0,0002.51,0001.89,0001.59
2022-10-28 11:21:00,,0831.5,5.00,0.00,22.2,20.7,00.0,31.1,23.9,12.2,0000.0,0002.47,0001.87,0001.58
2022-10-28 11:22:00,,0831.6,5.00,0.00,22.2,20.7,00.0,31.1,24.0,12.2,0000.0,0002.55,0001.86,0001.57
2022-10-28 11:23:00,,0831.5,5.00,0.00,22.2,20.7,00.0,31.1,24.0,12.2,0000.0,0002.51,0001.85,0001.57
2022-10-28 11:24:00,,0831.5,5.00,0.00,22.2,20.7,00.0,31.1,24.0,12.2,0000.0,0002.56,0001.85,0001.56
2022-10-28 11:25:00,,0831.5,5.00,0.00,22.2,20.7,00.0,31.0,23.9,12.2,0000.0,0002.63,0001.85,0001.55
2022-10-28 11:26:00,,0831.6,5.00,0.00,22.2,20.6,00.0,31.0,23.9,12.3,0000.0,0002.51,0001.80,0001.55
2022-10-28 11:27:00,,0831.6,5.00,0.00,22.2,20.6,00.0,31.0,23.9,12.3,0000.0,0002.48,0001.79,0001.55
2022-10-28 11:28:00,,0831.7,4.99,0.00,22.2,20.6,00.0,31.0,23.9,12.3,0000.0,0002.40,0001.75,0001.54
2022-10-28 11:29:00,,0831.7,4.99,0.00,22.1,20.5,00.0,31.0,23.9,12.3,0000.0,0002.34,0001.72,0001.53
2022-10-28 11:30:00,,0831.7,5.00,0.00,22.1,20.5,00.0,31.0,23.9,12.2,0000.0,0002.29,0001.71,0001.53
2022-10-28 11:31:00,,0831.7,5.00,0.00,22.1,20.5,00.0,31.0,23.9,12.2,0000.0,0002.25,0001.68,0001.53
2022-10-28 11:32:00,,0831.7,4.99,0.00,22.1,20.5,00.0,31.0,23.8,12.2,0000.0,0002.27,0001.68,0001.53
2022-10-28 11:33:00,,0831.7,5.03,0.00,22.1,20.5,00.0,31.0,23.9,12.3,0000.0,0002.19,0001.67,0001.53
2022-10-28 11:34:00,,0831.7,5.00,0.00,22.1,20.5,00.0,31.0,23.8,12.3,0000.0,0002.18,0001.68,0001.53
2022-10-28 11:35:00,,0831.7,4.98,0.00,22.1,20.4,00.0,31.0,23.8,12.3,0000.0,0002.14,0001.67,0001.54
2022-10-28 11:36:00,,0831.7,5.03,0.00,22.1,20.4,00.0,31.0,23.8,12.3,0000.0,0002.02,0001.66,0001.54
2022-10-28 11:37:00,,0831.7,4.97,0.00,22.0,20.4,00.0,31.0,23.8,12.4,0000.0,0002.07,0001.67,0001.53
2022-10-28 11:38:00,,0831.7,5.02,0.00,22.0,20.4,00.0,31.0,23.8,12.3,0000.0,0002.07,0001.66,0001.52
2022-10-28 11:39:00,,0831.7,5.00,0.00,22.0,20.4,00.0,30.9,23.8,12.4,0000.0,0002.09,0001.67,0001.52
2022-10-28 11:40:00,,0831.7,5.00,0.00,22.0,20.7,00.0,30.9,23.9,12.5,0000.0,0002.10,0001.67,0001.52
2022-10-28 11:41:00,,0831.8,4.99,0.00,22.1,21.6,00.0,30.9,24.2,12.4,0000.0,0002.10,0001.67,0001.52
2022-10-28 11:42:00,,0831.7,5.00,0.00,22.2,22.0,00.0,31.0,24.3,12.4,0000.0,0002.11,0001.68,0001.51
2022-10-28 11:43:00,,0831.7,5.01,0.00,22.3,21.8,00.0,31.0,24.3,12.5,0000.0,0002.09,0001.67,0001.52
2022-10-28 11:44:00,,0831.7,4.99,0.00,22.3,21.6,00.0,31.0,24.3,12.4,0000.0,0002.11,0001.67,0001.51
2022-10-28 11:45:00,,0831.7,5.01,0.00,22.3,21.4,00.0,31.0,24.2,12.3,0000.0,0002.62,0001.69,0001.51
2022-10-28 11:46:00,,0831.7,4.99,0.00,22.3,21.3,00.0,31.0,24.2,12.3,0000.0,0002.85,0001.71,0001.51
2022-10-28 11:47:00,,0831.7,5.01,0.00,22.3,21.1,00.0,31.0,24.1,12.2,0000.0,0002.79,0001.69,0001.50
2022-10-28 11:48:00,,0831.7,5.01,0.00,22.3,21.0,00.0,31.0,24.1,12.1,0000.0,0002.72,0001.67,0001.50
2022-10-28 11:49:00,,0831.7,5.00,0.00,22.2,20.9,00.0,31.0,24.0,12.1,0000.0,0002.69,0001.66,0001.50
2022-10-28 11:50:00,,0831.7,5.01,0.00,22.2,20.8,00.0,31.0,24.0,12.1,0000.0,0002.70,0001.66,0001.50
2022-10-28 11:51:00,,0831.7,5.01,0.00,22.2,20.8,00.0,31.0,24.0,12.1,0000.0,0002.71,0001.66,0001.50
2022-10-28 11:52:00,,0831.7,5.00,0.00,22.2,20.8,00.0,31.0,24.0,12.1,0000.0,0002.68,0001.65,0001.51
2022-10-28 11:53:00,,0831.7,4.98,0.00,22.2,20.7,00.0,31.0,24.0,12.1,0000.0,0002.62,0001.62,0001.50
2022-10-28 11:54:00,,0831.7,5.00,0.00,22.2,20.7,00.0,31.0,23.9,12.2,0000.0,0002.62,0001.62,0001.51
2022-10-28 11:55:00,,0831.7,5.00,0.00,22.2,20.6,00.0,31.0,23.9,12.2,0000.0,0002.60,0001.62,0001.51
2022-10-28 11:56:00,,0831.7,5.00,0.00,22.2,20.6,00.0,31.0,23.9,12.2,0000.0,0002.11,0001.63,0001.52
2022-10-28 11:57:00,,0831.7,5.01,0.00,22.1,20.6,00.0,31.0,23.9,12.1,0000.0,0001.87,0001.60,0001.51
2022-10-28 11:58:00,,0831.7,5.00,0.00,22.1,20.6,00.0,31.0,24.0,12.0,0000.0,0001.92,0001.61,0001.51
2022-10-28 11:59:00,,0831.7,5.01,0.00,22.1,20.6,00.0,31.0,24.0,12.0,0000.0,0001.98,0001.62,0001.51
